User: anonymous   Login
Location: Caltech
(34.1382°N, 118.1253°W)
Time: 06:59:40
(UTC-08:00)
Language:

Spot 4 Rocket - Orbit

View from above orbital plane
View from above orbital plane
View from above satellite
View from above satellite

Ground track
Ground track

The orbit data is extracted from the following two-line orbital elements,

1 25261U 98017B   15060.81307679  .00000493  00000-0  19508-3 0  9996
2 25261 098.4433 012.6638 0004457 062.8198 327.2061 14.33206388884918
Epoch (UTC): 01 March 2015 19:30:49
Eccentricity: 0.0004457
inclination: 98.4433°
perigee height: 778 km
apogee height: 784 km
right ascension of ascending node: 12.6638°
argument of perigee: 62.8198°
revolutions per day: 14.33206388
mean anomaly at epoch: 327.2061°
orbit number at epoch: 88491

The dashed part of the orbit path shows where the satellite is in the earth's shadow,  

DLR